TimeCST,TemperatureF,Dew PointF,Humidity,Sea Level PressureIn,VisibilityMPH,Wind Direction,Wind SpeedMPH,Gust SpeedMPH,PrecipitationIn,Events,Conditions,WindDirDegrees,DateUTC
12:15 AM,7.5,1.9,78,30.31,3.0,NW,21.9,29.9,N/A,,Haze,320,2014-01-21 06:15:00
12:35 AM,5.9,-2.2,69,30.31,10.0,NNW,20.7,27.6,N/A,,Overcast,330,2014-01-21 06:35:00
12:55 AM,5.5,-2.2,70,30.33,10.0,NNW,19.6,26.5,N/A,,Overcast,330,2014-01-21 06:55:00
1:15 AM,5.0,-4.0,66,30.33,10.0,NNW,17.3,21.9,N/A,,Scattered Clouds,340,2014-01-21 07:15:00
1:35 AM,4.1,-4.0,69,30.34,10.0,NNW,18.4,27.6,N/A,,Clear,340,2014-01-21 07:35:00
1:55 AM,3.2,-6.5,64,30.35,10.0,NNW,18.4,28.8,N/A,,Clear,340,2014-01-21 07:55:00
2:15 AM,2.8,-5.6,68,30.37,10.0,NNW,16.1,20.7,N/A,,Clear,330,2014-01-21 08:15:00
2:35 AM,2.3,-7.6,63,30.38,10.0,NNW,19.6,25.3,N/A,,Clear,340,2014-01-21 08:35:00
2:55 AM,1.8,-7.6,65,30.38,10.0,NNW,17.3,-,N/A,,Clear,340,2014-01-21 08:55:00
3:15 AM,1.4,-6.7,69,30.40,10.0,NNW,12.7,-,N/A,,Clear,330,2014-01-21 09:15:00
3:35 AM,0.7,-7.2,69,30.40,10.0,NNW,13.8,-,N/A,,Clear,330,2014-01-21 09:35:00
3:55 AM,0.5,-7.8,68,30.41,10.0,NNW,15.0,-,N/A,,Clear,330,2014-01-21 09:55:00
4:15 AM,-0.2,-7.8,70,30.41,10.0,NNW,12.7,-,N/A,,Clear,330,2014-01-21 10:15:00
4:35 AM,-0.8,-7.6,73,30.41,10.0,NW,10.4,19.6,N/A,,Clear,320,2014-01-21 10:35:00
4:55 AM,-1.3,-8.0,73,30.42,10.0,NW,8.1,-,N/A,,Clear,320,2014-01-21 10:55:00
5:15 AM,-1.7,-8.1,74,30.43,10.0,NW,8.1,-,N/A,,Clear,310,2014-01-21 11:15:00
5:35 AM,-2.2,-8.5,75,30.43,10.0,NNW,12.7,-,N/A,,Clear,330,2014-01-21 11:35:00
5:55 AM,-2.6,-8.5,76,30.43,10.0,NW,10.4,-,N/A,,Clear,310,2014-01-21 11:55:00
6:15 AM,-3.5,-9.0,77,30.42,10.0,NW,9.2,-,N/A,,Clear,320,2014-01-21 12:15:00
6:35 AM,-4.0,-9.8,76,30.42,10.0,NW,9.2,-,N/A,,Clear,310,2014-01-21 12:35:00
6:55 AM,-4.5,-10.3,76,30.42,10.0,NW,5.8,-,N/A,,Clear,310,2014-01-21 12:55:00
7:15 AM,-4.9,-10.7,76,30.42,10.0,NW,8.1,-,N/A,,Clear,310,2014-01-21 13:15:00
7:35 AM,-5.1,-11.0,76,30.42,10.0,WNW,8.1,-,N/A,,Clear,300,2014-01-21 13:35:00
7:55 AM,-5.3,-11.2,76,30.42,10.0,NW,5.8,-,N/A,,Clear,310,2014-01-21 13:55:00
8:15 AM,-4.9,-11.0,75,30.43,10.0,WNW,6.9,-,N/A,,Clear,290,2014-01-21 14:15:00
8:35 AM,-4.4,-10.7,74,30.43,10.0,WNW,10.4,-,N/A,,Clear,290,2014-01-21 14:35:00
8:55 AM,-3.8,-10.8,72,30.43,10.0,NW,9.2,-,N/A,,Clear,310,2014-01-21 14:55:00
9:15 AM,-2.9,-10.1,71,30.43,10.0,WNW,6.9,-,N/A,,Clear,300,2014-01-21 15:15:00
9:35 AM,-2.2,-9.9,70,30.44,10.0,WNW,8.1,-,N/A,,Clear,300,2014-01-21 15:35:00
9:55 AM,-2.0,-10.1,68,30.44,10.0,West,5.8,-,N/A,,Clear,280,2014-01-21 15:55:00
10:15 AM,-0.9,-9.0,69,30.44,10.0,NW,4.6,-,N/A,,Clear,310,2014-01-21 16:15:00
10:35 AM,-0.6,-8.7,69,30.43,10.0,West,3.5,-,N/A,,Clear,270,2014-01-21 16:35:00
10:55 AM,0.3,-8.3,67,30.43,10.0,WSW,3.5,-,N/A,,Clear,250,2014-01-21 16:55:00
11:15 AM,1.2,-8.1,65,30.41,10.0,NW,3.5,-,N/A,,Clear,320,2014-01-21 17:15:00
11:35 AM,1.9,-8.1,63,30.40,10.0,Calm,Calm,-,N/A,,Clear,0,2014-01-21 17:35:00
11:55 AM,2.8,-7.1,63,30.37,10.0,Calm,Calm,-,N/A,,Clear,0,2014-01-21 17:55:00
12:15 PM,3.2,-6.9,63,30.34,10.0,Calm,Calm,-,N/A,,Clear,0,2014-01-21 18:15:00
12:35 PM,4.1,-6.7,61,30.33,10.0,Calm,Calm,-,N/A,,Clear,0,2014-01-21 18:35:00
12:55 PM,4.6,-5.8,62,30.32,10.0,Calm,Calm,-,N/A,,Clear,0,2014-01-21 18:55:00
1:15 PM,6.8,-4.5,60,30.30,10.0,SW,4.6,-,N/A,,Clear,230,2014-01-21 19:15:00
1:35 PM,7.5,-3.1,62,30.29,10.0,South,3.5,-,N/A,,Clear,180,2014-01-21 19:35:00
1:55 PM,8.1,-2.6,62,30.28,10.0,SW,5.8,-,N/A,,Clear,220,2014-01-21 19:55:00
2:15 PM,8.6,-3.1,59,30.27,10.0,SW,3.5,-,N/A,,Scattered Clouds,220,2014-01-21 20:15:00
2:35 PM,9.7,-2.6,58,30.23,10.0,SSW,8.1,-,N/A,,Scattered Clouds,200,2014-01-21 20:35:00
2:55 PM,10.6,-2.2,56,30.22,10.0,South,6.9,-,N/A,,Scattered Clouds,190,2014-01-21 20:55:00
3:15 PM,10.4,-2.6,56,30.22,10.0,South,4.6,-,N/A,,Scattered Clouds,190,2014-01-21 21:15:00
3:35 PM,10.4,-2.6,56,30.21,10.0,SE,5.8,-,N/A,,Mostly Cloudy,140,2014-01-21 21:35:00
3:55 PM,10.4,-2.2,57,30.21,10.0,SE,8.1,-,N/A,,Overcast,140,2014-01-21 21:55:00
4:15 PM,10.9,-1.3,58,30.19,10.0,SE,9.2,-,N/A,,Overcast,140,2014-01-21 22:15:00
4:35 PM,10.9,-1.1,58,30.19,10.0,SE,6.9,-,N/A,,Overcast,140,2014-01-21 22:35:00
4:55 PM,10.9,-0.8,59,30.18,10.0,SE,8.1,-,N/A,,Overcast,140,2014-01-21 22:55:00
5:15 PM,11.1,-0.6,59,30.17,10.0,SSE,8.1,-,N/A,,Overcast,160,2014-01-21 23:15:00
5:35 PM,11.1,-0.9,58,30.15,10.0,SSE,10.4,-,N/A,,Overcast,150,2014-01-21 23:35:00
5:55 PM,11.3,-1.1,57,30.15,10.0,SE,11.5,-,N/A,,Overcast,140,2014-01-21 23:55:00
6:15 PM,11.5,-0.2,59,30.13,10.0,SSE,11.5,-,N/A,,Overcast,150,2014-01-22 00:15:00
6:35 PM,11.8,0.3,60,30.16,10.0,South,8.1,-,N/A,,Overcast,180,2014-01-22 00:35:00
6:55 PM,12.0,-0.8,57,30.16,10.0,South,5.8,-,N/A,,Overcast,170,2014-01-22 00:55:00
7:15 PM,12.0,-0.8,57,30.16,10.0,South,8.1,-,N/A,,Overcast,170,2014-01-22 01:15:00
7:35 PM,12.2,-0.0,58,30.16,10.0,South,6.9,-,N/A,,Overcast,190,2014-01-22 01:35:00
7:55 PM,12.2,0.1,59,30.16,10.0,South,6.9,-,N/A,,Overcast,180,2014-01-22 01:55:00
8:15 PM,12.6,0.3,58,30.15,10.0,South,10.4,-,N/A,,Overcast,190,2014-01-22 02:15:00
8:35 PM,12.6,0.1,58,30.13,10.0,South,9.2,-,N/A,,Overcast,180,2014-01-22 02:35:00
8:55 PM,12.7,0.9,59,30.13,10.0,South,10.4,-,N/A,,Overcast,180,2014-01-22 02:55:00
9:15 PM,13.1,1.4,60,30.12,10.0,South,6.9,-,N/A,,Overcast,170,2014-01-22 03:15:00
9:35 PM,13.1,1.6,60,30.10,10.0,South,9.2,-,N/A,,Overcast,170,2014-01-22 03:35:00
9:55 PM,13.5,1.8,60,30.09,10.0,South,9.2,-,N/A,,Overcast,170,2014-01-22 03:55:00
10:15 PM,13.8,2.3,60,30.09,10.0,South,5.8,-,N/A,,Overcast,170,2014-01-22 04:15:00
10:35 PM,14.0,2.3,60,30.08,10.0,South,6.9,-,N/A,,Overcast,180,2014-01-22 04:35:00
10:55 PM,14.0,2.3,60,30.08,10.0,South,9.2,-,N/A,,Overcast,180,2014-01-22 04:55:00
11:15 PM,14.4,2.5,59,30.07,10.0,South,9.2,-,N/A,,Overcast,180,2014-01-22 05:15:00
11:35 PM,14.5,2.3,58,30.06,10.0,South,9.2,-,N/A,,Overcast,180,2014-01-22 05:35:00
11:55 PM,14.7,3.2,60,30.05,10.0,South,6.9,-,N/A,,Overcast,170,2014-01-22 05:55:00